• In Hungary
  • List of Countries
  • For 7 days
  • Water Temperature
  • Satellite Maps
  • Weather Map
  • News
  • Weather Widgets
  • user-avatar
    Login

    Hourly Weather Mirishkor

    Today, 15 October, Monday

    Time Temperature Precipitation Wind Pressure Humidity
    00:00 +12°C° 0 mm 1 mps 724 mmHg 48%
    01:00 +12°C° 0 mm 1 mps 724 mmHg 50%
    02:00 +12°C° 0 mm 1 mps 723 mmHg 51%
    03:00 +11°C° 0 mm 1 mps 723 mmHg 52%
    04:00 +11°C° 0 mm 1 mps 723 mmHg 53%
    05:00 +11°C° 0 mm 1 mps 722 mmHg 54%
    06:00 +11°C° 0 mm 1 mps 722 mmHg 53%
    07:00 +12°C° 0 mm 1 mps 722 mmHg 51%
    08:00 +12°C° 0 mm 1 mps 721 mmHg 50%
    09:00 +13°C° 0 mm 1 mps 721 mmHg 47%
    10:00 +14°C° 0 mm 1 mps 720 mmHg 44%
    11:00 +16°C° 0 mm 2 mps 720 mmHg 41%
    12:00 +17°C° 0.1 mm 2 mps 720 mmHg 39%
    13:00 +17°C° 0.1 mm 2 mps 719 mmHg 38%
    14:00 +18°C° 0.1 mm 2 mps 719 mmHg 36%
    15:00 +18°C° 0.1 mm 3 mps 720 mmHg 37%
    16:00 +17°C° 0.1 mm 4 mps 720 mmHg 38%
    17:00 +17°C° 0 mm 4 mps 720 mmHg 39%
    18:00 +15°C° 0.1 mm 4 mps 720 mmHg 39%
    19:00 +15°C° 0.1 mm 4 mps 721 mmHg 39%
    20:00 +14°C° 0.1 mm 5 mps 721 mmHg 38%
    21:00 +14°C° 0.2 mm 4 mps 721 mmHg 40%
    22:00 +13°C° 0.2 mm 4 mps 722 mmHg 41%
    23:00 +13°C° 0.2 mm 4 mps 722 mmHg 43%

    Tomorrow, 16 October, Tuesday

    Time Temperature Precipitation Wind Pressure Humidity
    00:00 +12°C° 0.4 mm 4 mps 722 mmHg 49%
    01:00 +11°C° 0.4 mm 4 mps 722 mmHg 54%
    02:00 +11°C° 0.4 mm 4 mps 722 mmHg 60%
    03:00 +10°C° 0.7 mm 4 mps 722 mmHg 63%
    04:00 +10°C° 0.7 mm 3 mps 722 mmHg 66%
    05:00 +9°C° 0.7 mm 3 mps 723 mmHg 70%
    06:00 +9°C° 0.7 mm 3 mps 723 mmHg 71%
    07:00 +9°C° 0.7 mm 3 mps 723 mmHg 73%
    08:00 +9°C° 0.7 mm 3 mps 723 mmHg 75%
    09:00 +9°C° 0.6 mm 3 mps 723 mmHg 74%
    10:00 +9°C° 0.6 mm 3 mps 723 mmHg 73%
    11:00 +10°C° 0.6 mm 3 mps 723 mmHg 72%
    12:00 +10°C° 0.5 mm 4 mps 723 mmHg 70%
    13:00 +10°C° 0.5 mm 4 mps 723 mmHg 67%
    14:00 +10°C° 0.5 mm 4 mps 723 mmHg 65%
    15:00 +9°C° 0.4 mm 5 mps 724 mmHg 63%
    16:00 +9°C° 0.4 mm 5 mps 724 mmHg 62%
    17:00 +8°C° 0.4 mm 5 mps 724 mmHg 61%
    18:00 +8°C° 0.3 mm 5 mps 725 mmHg 61%
    19:00 +7°C° 0.3 mm 5 mps 725 mmHg 62%
    20:00 +7°C° 0.3 mm 5 mps 726 mmHg 62%
    21:00 +6°C° 0.2 mm 5 mps 726 mmHg 62%
    22:00 +6°C° 0.2 mm 5 mps 727 mmHg 63%
    23:00 +6°C° 0.2 mm 4 mps 727 mmHg 63%

    Day after tomorrow, 17 October, Wednesday

    Time Temperature Precipitation Wind Pressure Humidity
    00:00 +6°C° 0.2 mm 4 mps 728 mmHg 64%
    01:00 +6°C° 0.2 mm 4 mps 728 mmHg 64%
    02:00 +7°C° 0.2 mm 3 mps 728 mmHg 65%
    03:00 +5°C° 0.2 mm 3 mps 729 mmHg 66%
    04:00 +5°C° 0.2 mm 3 mps 730 mmHg 67%
    05:00 +5°C° 0.2 mm 3 mps 730 mmHg 68%
    06:00 +5°C° 0.2 mm 4 mps 731 mmHg 67%
    07:00 +5°C° 0.2 mm 4 mps 731 mmHg 66%
    08:00 +5°C° 0.2 mm 4 mps 732 mmHg 65%
    09:00 +6°C° 0.1 mm 4 mps 732 mmHg 61%
    10:00 +6°C° 0.1 mm 4 mps 732 mmHg 56%
    11:00 +7°C° 0.1 mm 4 mps 732 mmHg 52%
    12:00 +8°C° 0.1 mm 4 mps 732 mmHg 48%
    13:00 +10°C° 0.1 mm 3 mps 732 mmHg 45%
    14:00 +10°C° 0.1 mm 3 mps 732 mmHg 41%
    15:00 +10°C° 0 mm 3 mps 732 mmHg 43%
    16:00 +9°C° 0 mm 2 mps 732 mmHg 44%
    17:00 +9°C° 0 mm 2 mps 732 mmHg 45%
    18:00 +8°C° 0 mm 2 mps 733 mmHg 49%
    19:00 +7°C° 0 mm 3 mps 733 mmHg 52%
    20:00 +5°C° 0 mm 3 mps 734 mmHg 55%
    21:00 +4°C° 0 mm 3 mps 734 mmHg 55%
    22:00 +4°C° 0 mm 3 mps 733 mmHg 54%
    23:00 +3°C° 0 mm 3 mps 733 mmHg 54%

    18 October, Thursday

    Time Temperature Precipitation Wind Pressure Humidity
    00:00 +3°C° 0 mm 3 mps 733 mmHg 52%
    01:00 +3°C° 0 mm 3 mps 732 mmHg 51%
    02:00 +2°C° 0 mm 3 mps 731 mmHg 50%
    03:00 +3°C° 0 mm 2 mps 731 mmHg 49%
    04:00 +3°C° 0 mm 2 mps 731 mmHg 48%
    05:00 +3°C° 0 mm 2 mps 730 mmHg 47%
    06:00 +4°C° 0 mm 2 mps 730 mmHg 45%
    07:00 +5°C° 0 mm 1 mps 730 mmHg 43%
    08:00 +6°C° 0 mm 1 mps 729 mmHg 42%
    09:00 +8°C° 0 mm 1 mps 729 mmHg 39%
    10:00 +9°C° 0 mm 1 mps 728 mmHg 36%
    11:00 +11°C° 0 mm 1 mps 727 mmHg 33%
    12:00 +12°C° 0 mm 1 mps 727 mmHg 32%
    13:00 +12°C° 0 mm 1 mps 726 mmHg 32%
    14:00 +13°C° 0 mm 1 mps 726 mmHg 31%
    15:00 +13°C° 0 mm 1 mps 726 mmHg 31%
    16:00 +12°C° 0 mm 1 mps 726 mmHg 32%
    17:00 +12°C° 0 mm 1 mps 726 mmHg 33%
    18:00 +11°C° 0 mm 1 mps 727 mmHg 34%
    19:00 +10°C° 0 mm 1 mps 727 mmHg 35%
    20:00 +10°C° 0 mm 1 mps 727 mmHg 35%
    21:00 +10°C° 0 mm 1 mps 727 mmHg 36%
    22:00 +9°C° 0 mm 1 mps 727 mmHg 37%
    23:00 +9°C° 0 mm 1 mps 727 mmHg 38%

    19 October, Friday

    Time Temperature Precipitation Wind Pressure Humidity
    00:00 +9°C° 0 mm 1 mps 727 mmHg 39%
    01:00 +9°C° 0 mm 1 mps 727 mmHg 40%
    02:00 +9°C° 0 mm 1 mps 726 mmHg 40%
    03:00 +9°C° 0 mm 1 mps 727 mmHg 41%
    04:00 +8°C° 0 mm 1 mps 727 mmHg 41%
    05:00 +8°C° 0 mm 1 mps 727 mmHg 42%
    06:00 +9°C° 0 mm 1 mps 727 mmHg 41%
    07:00 +9°C° 0 mm 1 mps 727 mmHg 41%
    08:00 +10°C° 0 mm 1 mps 727 mmHg 40%
    09:00 +11°C° 0 mm 1 mps 727 mmHg 39%
    10:00 +12°C° 0 mm 1 mps 727 mmHg 37%
    11:00 +13°C° 0 mm 2 mps 726 mmHg 35%
    12:00 +14°C° 0 mm 1 mps 726 mmHg 34%
    13:00 +14°C° 0 mm 1 mps 726 mmHg 34%
    14:00 +15°C° 0 mm 1 mps 726 mmHg 33%
    15:00 +14°C° 0 mm 1 mps 726 mmHg 34%
    16:00 +14°C° 0 mm 1 mps 727 mmHg 35%
    17:00 +13°C° 0 mm 1 mps 727 mmHg 35%
    18:00 +13°C° 0 mm 2 mps 728 mmHg 37%
    19:00 +12°C° 0 mm 2 mps 728 mmHg 38%
    20:00 +10°C° 0 mm 2 mps 729 mmHg 40%
    21:00 +10°C° 0 mm 2 mps 729 mmHg 41%
    22:00 +10°C° 0 mm 2 mps 729 mmHg 41%
    23:00 +9°C° 0 mm 2 mps 729 mmHg 42%

    20 October, Saturday

    Time Temperature Precipitation Wind Pressure Humidity
    00:00 +9°C° 0 mm 2 mps 729 mmHg 43%
    01:00 +9°C° 0 mm 2 mps 729 mmHg 43%
    02:00 +8°C° 0 mm 2 mps 729 mmHg 43%
    03:00 +8°C° 0 mm 2 mps 729 mmHg 43%
    04:00 +8°C° 0 mm 2 mps 729 mmHg 43%
    05:00 +8°C° 0 mm 2 mps 729 mmHg 43%
    06:00 +9°C° 0 mm 2 mps 729 mmHg 42%
    07:00 +9°C° 0 mm 2 mps 729 mmHg 42%
    08:00 +10°C° 0 mm 2 mps 729 mmHg 41%
    09:00 +12°C° 0 mm 2 mps 729 mmHg 40%
    10:00 +14°C° 0 mm 2 mps 729 mmHg 39%
    11:00 +15°C° 0 mm 2 mps 728 mmHg 38%
    12:00 +15°C° 0 mm 2 mps 728 mmHg 37%
    13:00 +16°C° 0 mm 2 mps 728 mmHg 37%
    14:00 +18°C° 0 mm 1 mps 728 mmHg 36%
    15:00 +16°C° 0 mm 1 mps 728 mmHg 36%
    16:00 +16°C° 0 mm 1 mps 728 mmHg 37%
    17:00 +15°C° 0 mm 1 mps 729 mmHg 37%
    18:00 +14°C° 0 mm 2 mps 729 mmHg 39%
    19:00 +13°C° 0 mm 2 mps 729 mmHg 40%
    20:00 +12°C° 0 mm 3 mps 730 mmHg 42%
    21:00 +11°C° 0 mm 3 mps 730 mmHg 43%
    22:00 +11°C° 0 mm 3 mps 730 mmHg 43%
    23:00 +10°C° 0 mm 3 mps 730 mmHg 43%
    Show more